Time,TemperatureF,DewpointF,PressureIn,WindDirection,WindDirectionDegrees,WindSpeedMPH,WindSpeedGustMPH,Humidity,HourlyPrecipIn,Conditions,Clouds,dailyrainin,SolarRadiationWatts/m^2,SoftwareType,DateUTC
2013-09-03 00:03:00,46.0,45.0,-100.00,WNW,292,0.0,0.0,98,0.00,,,0.00,0.000000,,2013-09-03 05:03:00,
2013-09-03 00:10:00,45.0,44.0,-100.00,WNW,292,0.0,0.0,98,0.00,,,0.00,0.000000,,2013-09-03 05:10:00,
2013-09-03 00:43:00,45.0,44.0,-100.00,WNW,292,0.0,0.0,98,0.00,,,0.00,0.000000,,2013-09-03 05:43:00,
2013-09-03 00:52:00,45.0,44.0,-100.00,WNW,292,0.0,0.0,98,0.00,,,0.00,0.000000,,2013-09-03 05:52:00,
2013-09-03 01:02:00,45.0,44.0,-100.00,WNW,292,0.0,0.0,98,0.00,,,0.00,0.000000,,2013-09-03 06:02:00,
2013-09-03 01:10:00,44.0,44.0,-100.00,WNW,292,0.0,0.0,99,0.00,,,0.00,0.000000,,2013-09-03 06:10:00,
2013-09-03 01:43:00,44.0,44.0,-100.00,WNW,292,0.0,0.0,99,0.00,,,0.00,0.000000,,2013-09-03 06:43:00,
2013-09-03 01:52:00,44.0,44.0,-100.00,WNW,292,0.0,0.0,99,0.00,,,0.00,0.000000,,2013-09-03 06:52:00,
2013-09-03 02:02:00,44.0,44.0,-100.00,WNW,292,0.0,0.0,99,0.00,,,0.00,0.000000,,2013-09-03 07:02:00,
2013-09-03 02:10:00,44.0,44.0,-100.00,WNW,292,0.0,0.0,99,0.00,,,0.00,0.000000,,2013-09-03 07:10:00,
2013-09-03 02:42:00,44.0,44.0,-100.00,WNW,292,0.0,0.0,99,0.00,,,0.00,0.000000,,2013-09-03 07:42:00,
2013-09-03 02:53:00,44.0,44.0,-100.00,WNW,292,0.0,0.0,99,0.00,,,0.00,0.000000,,2013-09-03 07:53:00,
2013-09-03 03:03:00,44.0,44.0,-100.00,WNW,292,0.0,0.0,99,0.00,,,0.00,0.000000,,2013-09-03 08:03:00,
2013-09-03 03:10:00,43.0,43.0,-100.00,WNW,292,0.0,0.0,99,0.00,,,0.00,0.000000,,2013-09-03 08:10:00,
2013-09-03 03:42:00,43.0,43.0,-100.00,WNW,292,0.0,0.0,99,0.00,,,0.00,0.000000,,2013-09-03 08:42:00,
2013-09-03 03:52:00,43.0,43.0,-100.00,WNW,292,0.0,0.0,99,0.00,,,0.00,0.000000,,2013-09-03 08:52:00,
2013-09-03 04:02:00,43.0,43.0,-100.00,WNW,292,0.0,0.0,99,0.00,,,0.00,0.000000,,2013-09-03 09:02:00,
2013-09-03 04:10:00,42.0,42.0,-100.00,WNW,292,0.0,0.0,99,0.00,,,0.00,0.000000,,2013-09-03 09:10:00,
2013-09-03 04:43:00,42.0,42.0,-100.00,WNW,292,0.0,0.0,99,0.00,,,0.00,0.000000,,2013-09-03 09:43:00,
2013-09-03 04:53:00,42.0,42.0,-100.00,WNW,292,0.0,0.0,99,0.00,,,0.00,0.000000,,2013-09-03 09:53:00,
2013-09-03 05:03:00,42.0,42.0,-100.00,WNW,292,0.0,0.0,99,0.00,,,0.00,0.000000,,2013-09-03 10:03:00,
2013-09-03 05:10:00,42.0,42.0,-100.00,WNW,292,0.0,0.0,99,0.00,,,0.00,0.000000,,2013-09-03 10:10:00,
2013-09-03 05:42:00,42.0,42.0,-100.00,WNW,292,0.0,0.0,99,0.00,,,0.00,0.000000,,2013-09-03 10:42:00,
2013-09-03 05:53:00,42.0,42.0,-100.00,WNW,292,0.0,0.0,99,0.00,,,0.00,0.000000,,2013-09-03 10:53:00,
2013-09-03 06:02:00,42.0,42.0,-100.00,WNW,292,0.0,0.0,99,0.00,,,0.00,0.000000,,2013-09-03 11:02:00,
2013-09-03 06:10:00,42.0,42.0,-100.00,WNW,292,0.0,0.0,99,0.00,,,0.00,0.000000,,2013-09-03 11:10:00,
2013-09-03 06:43:00,42.0,42.0,-100.00,WNW,292,0.0,0.0,99,0.00,,,0.00,0.000000,,2013-09-03 11:43:00,
2013-09-03 06:52:00,42.0,42.0,-100.00,WNW,292,0.0,0.0,99,0.00,,,0.00,0.000000,,2013-09-03 11:52:00,
2013-09-03 07:02:00,42.0,42.0,-100.00,WNW,292,0.0,0.0,99,0.00,,,0.00,0.000000,,2013-09-03 12:02:00,
2013-09-03 07:10:00,43.0,43.0,-100.00,WNW,292,0.0,0.0,99,0.00,,,0.00,7.000000,,2013-09-03 12:10:00,
2013-09-03 07:42:00,43.0,43.0,-100.00,WNW,292,0.0,0.0,99,0.00,,,0.00,7.000000,,2013-09-03 12:42:00,
2013-09-03 07:52:00,43.0,43.0,-100.00,WNW,292,0.0,0.0,99,0.00,,,0.00,7.000000,,2013-09-03 12:52:00,
2013-09-03 08:02:00,43.0,43.0,-100.00,WNW,292,0.0,0.0,99,0.00,,,0.00,7.000000,,2013-09-03 13:02:00,
2013-09-03 08:10:00,50.0,50.0,-100.00,NW,304,1.0,5.0,99,0.00,,,0.00,85.000000,,2013-09-03 13:10:00,
2013-09-03 08:42:00,50.0,50.0,-100.00,NW,304,1.0,5.0,99,0.00,,,0.00,85.000000,,2013-09-03 13:42:00,
2013-09-03 08:52:00,50.0,50.0,-100.00,NW,304,1.0,5.0,99,0.00,,,0.00,85.000000,,2013-09-03 13:52:00,
2013-09-03 09:02:00,50.0,50.0,-100.00,NW,304,1.0,5.0,99,0.00,,,0.00,85.000000,,2013-09-03 14:02:00,
2013-09-03 09:42:00,56.0,51.0,-100.00,West,263,3.0,9.0,83,0.00,,,-99.99,95.000000,,2013-09-03 14:42:00,
2013-09-03 09:52:00,56.0,51.0,-100.00,West,263,3.0,9.0,83,0.00,,,-99.99,95.000000,,2013-09-03 14:52:00,
2013-09-03 10:02:00,56.0,51.0,-100.00,West,263,3.0,9.0,83,0.00,,,-99.99,95.000000,,2013-09-03 15:02:00,
2013-09-03 10:10:00,60.0,51.0,-100.00,NW,323,4.0,9.0,71,0.00,,,0.00,268.000000,,2013-09-03 15:10:00,
2013-09-03 10:43:00,60.0,51.0,-100.00,NW,323,4.0,9.0,71,0.00,,,0.00,268.000000,,2013-09-03 15:43:00,
2013-09-03 10:54:00,60.0,51.0,-100.00,NW,323,4.0,9.0,71,0.00,,,0.00,268.000000,,2013-09-03 15:54:00,
2013-09-03 11:04:00,60.0,51.0,-100.00,NW,323,4.0,9.0,71,0.00,,,0.00,268.000000,,2013-09-03 16:04:00,
2013-09-03 11:10:00,63.0,49.0,-100.00,WSW,256,4.0,11.0,60,0.00,,,0.00,597.000000,,2013-09-03 16:10:00,
2013-09-03 11:43:00,63.0,49.0,-100.00,WSW,256,4.0,11.0,60,0.00,,,0.00,597.000000,,2013-09-03 16:43:00,
2013-09-03 11:54:00,63.0,49.0,-100.00,WSW,256,4.0,11.0,60,0.00,,,0.00,597.000000,,2013-09-03 16:54:00,
2013-09-03 12:03:00,63.0,49.0,-100.00,WSW,256,4.0,11.0,60,0.00,,,0.00,597.000000,,2013-09-03 17:03:00,
2013-09-03 12:10:00,66.0,50.0,-100.00,WSW,253,4.0,11.0,56,0.00,,,0.00,672.000000,,2013-09-03 17:10:00,
2013-09-03 12:43:00,66.0,50.0,-100.00,WSW,253,4.0,11.0,56,0.00,,,0.00,672.000000,,2013-09-03 17:43:00,
2013-09-03 12:52:00,66.0,50.0,-100.00,WSW,253,4.0,11.0,56,0.00,,,0.00,672.000000,,2013-09-03 17:52:00,
2013-09-03 13:02:00,66.0,50.0,-100.00,WSW,253,4.0,11.0,56,0.00,,,0.00,672.000000,,2013-09-03 18:02:00,
2013-09-03 13:10:00,68.0,49.0,-100.00,SW,223,5.0,12.0,51,0.00,,,0.00,736.000000,,2013-09-03 18:10:00,
2013-09-03 13:43:00,68.0,49.0,-100.00,SW,223,5.0,12.0,51,0.00,,,0.00,736.000000,,2013-09-03 18:43:00,
2013-09-03 13:52:00,68.0,49.0,-100.00,SW,223,5.0,12.0,51,0.00,,,0.00,736.000000,,2013-09-03 18:52:00,
2013-09-03 14:02:00,68.0,49.0,-100.00,SW,223,5.0,12.0,51,0.00,,,0.00,736.000000,,2013-09-03 19:02:00,
2013-09-03 14:10:00,72.0,51.0,-100.00,SW,232,3.0,12.0,47,0.00,,,0.00,704.000000,,2013-09-03 19:10:00,
2013-09-03 14:42:00,72.0,51.0,-100.00,SW,232,3.0,12.0,47,0.00,,,0.00,704.000000,,2013-09-03 19:42:00,
2013-09-03 14:52:00,72.0,51.0,-100.00,SW,232,3.0,12.0,47,0.00,,,0.00,704.000000,,2013-09-03 19:52:00,
2013-09-03 15:02:00,72.0,51.0,-100.00,SW,232,3.0,12.0,47,0.00,,,0.00,704.000000,,2013-09-03 20:02:00,
2013-09-03 15:10:00,72.0,49.0,-100.00,West,262,5.0,13.0,45,0.00,,,0.00,629.000000,,2013-09-03 20:10:00,
2013-09-03 15:42:00,72.0,49.0,-100.00,West,262,5.0,13.0,45,0.00,,,0.00,629.000000,,2013-09-03 20:42:00,
2013-09-03 15:53:00,72.0,49.0,-100.00,West,262,5.0,13.0,45,0.00,,,0.00,629.000000,,2013-09-03 20:53:00,
2013-09-03 16:01:00,72.0,49.0,-100.00,West,262,5.0,13.0,45,0.00,,,0.00,629.000000,,2013-09-03 21:01:00,
2013-09-03 16:10:00,73.0,49.0,-100.00,WSW,245,4.0,11.0,43,0.00,,,0.00,531.000000,,2013-09-03 21:10:00,
2013-09-03 16:44:00,73.0,49.0,-100.00,WSW,245,4.0,11.0,43,0.00,,,0.00,531.000000,,2013-09-03 21:44:00,
2013-09-03 16:54:00,73.0,49.0,-100.00,WSW,245,4.0,11.0,43,0.00,,,0.00,531.000000,,2013-09-03 21:54:00,
2013-09-03 17:04:00,73.0,49.0,-100.00,WSW,245,4.0,11.0,43,0.00,,,0.00,531.000000,,2013-09-03 22:04:00,
2013-09-03 17:10:00,74.0,51.0,-100.00,West,263,4.0,11.0,45,0.00,,,0.00,399.000000,,2013-09-03 22:10:00,
2013-09-03 17:43:00,74.0,51.0,-100.00,West,263,4.0,11.0,45,0.00,,,0.00,399.000000,,2013-09-03 22:43:00,
2013-09-03 17:53:00,74.0,51.0,-100.00,West,263,4.0,11.0,45,0.00,,,0.00,399.000000,,2013-09-03 22:53:00,
2013-09-03 18:04:00,74.0,51.0,-100.00,West,263,4.0,11.0,45,0.00,,,0.00,399.000000,,2013-09-03 23:04:00,
2013-09-03 18:10:00,72.0,52.0,-100.00,WSW,254,4.0,12.0,49,0.00,,,0.00,237.000000,,2013-09-03 23:10:00,
2013-09-03 18:42:00,72.0,52.0,-100.00,WSW,254,4.0,12.0,49,0.00,,,0.00,237.000000,,2013-09-03 23:42:00,
2013-09-03 18:54:00,72.0,52.0,-100.00,WSW,254,4.0,12.0,49,0.00,,,0.00,237.000000,,2013-09-03 23:54:00,
2013-09-03 19:02:00,72.0,52.0,-100.00,WSW,254,4.0,12.0,49,0.00,,,0.00,237.000000,,2013-09-04 00:02:00,
2013-09-03 19:10:00,67.0,53.0,-100.00,SW,227,2.0,8.0,61,0.00,,,0.00,47.000000,,2013-09-04 00:10:00,
2013-09-03 19:42:00,67.0,53.0,-100.00,SW,227,2.0,8.0,61,0.00,,,0.00,47.000000,,2013-09-04 00:42:00,
2013-09-03 19:52:00,67.0,53.0,-100.00,SW,227,2.0,8.0,61,0.00,,,0.00,47.000000,,2013-09-04 00:52:00,
2013-09-03 20:01:00,67.0,53.0,-100.00,SW,227,2.0,8.0,61,0.00,,,0.00,47.000000,,2013-09-04 01:01:00,
2013-09-03 20:10:00,62.0,55.0,-100.00,SW,229,1.0,5.0,78,0.00,,,0.00,3.000000,,2013-09-04 01:10:00,
2013-09-03 20:42:00,62.0,55.0,-100.00,SW,229,1.0,5.0,78,0.00,,,0.00,3.000000,,2013-09-04 01:42:00,
2013-09-03 20:53:00,62.0,55.0,-100.00,SW,229,1.0,5.0,78,0.00,,,0.00,3.000000,,2013-09-04 01:53:00,
2013-09-03 21:02:00,62.0,55.0,-100.00,SW,229,1.0,5.0,78,0.00,,,0.00,3.000000,,2013-09-04 02:02:00,
2013-09-03 21:10:00,62.0,55.0,-100.00,WSW,237,1.0,5.0,78,0.00,,,0.00,0.000000,,2013-09-04 02:10:00,
2013-09-03 21:43:00,62.0,55.0,-100.00,WSW,237,1.0,5.0,78,0.00,,,0.00,0.000000,,2013-09-04 02:43:00,
2013-09-03 21:52:00,62.0,55.0,-100.00,WSW,237,1.0,5.0,78,0.00,,,0.00,0.000000,,2013-09-04 02:52:00,
2013-09-03 22:03:00,62.0,55.0,-100.00,WSW,237,1.0,5.0,78,0.00,,,0.00,0.000000,,2013-09-04 03:03:00,
2013-09-03 22:10:00,62.0,55.0,-100.00,WSW,246,2.0,7.0,77,0.00,,,0.00,0.000000,,2013-09-04 03:10:00,
2013-09-03 22:44:00,62.0,55.0,-100.00,WSW,246,2.0,7.0,77,0.00,,,0.00,0.000000,,2013-09-04 03:44:00,
2013-09-03 22:54:00,62.0,55.0,-100.00,WSW,246,2.0,7.0,77,0.00,,,0.00,0.000000,,2013-09-04 03:54:00,
2013-09-03 23:04:00,62.0,55.0,-100.00,WSW,246,2.0,7.0,77,0.00,,,0.00,0.000000,,2013-09-04 04:04:00,
2013-09-03 23:10:00,60.0,53.0,-100.00,WNW,283,1.0,7.0,77,0.00,,,0.00,0.000000,,2013-09-04 04:10:00,
2013-09-03 23:44:00,60.0,53.0,-100.00,WNW,283,1.0,7.0,77,0.00,,,0.00,0.000000,,2013-09-04 04:44:00,
2013-09-03 23:54:00,60.0,53.0,-100.00,WNW,283,1.0,7.0,77,0.00,,,0.00,0.000000,,2013-09-04 04:54:00,